Terug naar catalogus

METEOR 2-5 DEB

ActiefPO
NORAD 38272·DEBRIS·🇷🇺 Russia

Gelanceerd Oct 31, 1979 vanaf Plesetsk Cosmodrome

Loading…

Volgende Passages (komende 24 uur)

TLE

VersSource: Space-Track

Epoch: Sep 12, 2026, 04:15 UTC

1 38272U 79095BS  26255.17740127  .00004549  00000-0  13576-2 0  9997
2 38272  81.1958  44.8059 0027627 138.1024  36.3977 14.42679386673460

Volg METEOR 2-5 DEB in realtime met AllMySat

Download on the App Store